(°C)
11°
11°
10°
10°
10°
10°
12°
(°C)
11°
10°
10°
10°
10°
12°
S
JV
VJV
VJV
JV
S
Z
(km/h)
2-10
2-9
1-8
2-7
1-6
2-5
1-5
(mm)
2.4
1
0
0
0
0
0
(%)
55
54
46
33
33
20
14

Sluneční výška

/ -45.9°
sun-icon
UV 3
07:45
18:58
Dorůstající měsíc (132°)
17:24
03:10

METAR pro Ioánnina (LGIO)

Čas Podmínky Teplota/
Rosný bod
Vítr Viditelnost Počasí Oblaky Tlak Změna Nezpracované
11°C / 11°C variable 3kt Light Rain 1.00mm precipitation Vertical Visibility of 0ft. 1008 - LGIO 160020Z AUTO VRB03KT //// -RA ////// 11/11 Q1008 RE//
11°C / 11°C variable 0kt Light Rain 1.00mm precipitation Vertical Visibility of 0ft. 1008 - LGIO 152350Z AUTO 00000KT //// -RA ////// 11/11 Q1008 RE//
11°C / 11°C variable 2kt Light Rain 1.00mm precipitation Vertical Visibility of 0ft. 1007 - LGIO 152320Z AUTO VRB02KT //// -RA ////// 11/11 Q1007 RE//
11°C / 11°C variable 3kt - 1007 - LGIO 152250Z AUTO VRB03KT //// // ////// 11/11 Q1007 RERA
11°C / 11°C variable 2kt Light Rain 1.00mm precipitation Vertical Visibility of 0ft. 1007 - LGIO 152220Z AUTO VRB02KT //// -RA ////// 11/11 Q1007 RE//
11°C / 11°C variable 0kt Light Rain 1.00mm precipitation Vertical Visibility of 0ft. 1007 - LGIO 152150Z AUTO 00000KT //// -RA ////// 11/11 Q1007 RE//
11°C / 11°C variable 0kt Light Rain 1.00mm precipitation Vertical Visibility of 0ft. 1007 - LGIO 152120Z AUTO 00000KT //// -RA ////// 11/11 Q1007 RE//
12°C / 11°C variable 1kt Light Rain 1.00mm precipitation Vertical Visibility of 0ft. 1007 - LGIO 152050Z AUTO VRB01KT //// -RA ////// 12/11 Q1007 RE//
12°C / 11°C variable 0kt Light Rain 1.00mm precipitation Vertical Visibility of 0ft. 1007 - LGIO 152020Z AUTO 00000KT //// -RA ////// 12/11 Q1007 RE//
11°C / 11°C variable 0kt Light Rain 1.00mm precipitation Vertical Visibility of 0ft. 1006 - LGIO 151950Z AUTO 00000KT //// -RA ////// 11/11 Q1006 RE//
12°C / 11°C variable 1kt Light Rain 1.00mm precipitation Vertical Visibility of 0ft. 1006 - LGIO 151920Z AUTO VRB01KT //// -RA ////// 12/11 Q1006 RE//
12°C / 11°C variable 1kt Light Rain 1.00mm precipitation Vertical Visibility of 0ft. 1006 - LGIO 151850Z AUTO VRB01KT //// -RA ////// 12/11 Q1006 RE//
12°C / 11°C variable 2kt Light Rain 1.00mm precipitation Vertical Visibility of 0ft. 1006 - LGIO 151820Z AUTO VRB02KT //// -RA ////// 12/11 Q1006 RE//
VFR 12°C / 11°C variable 0kt >10km Light Rain 1.00mm precipitation Vertical Visibility of 0ft.
Scattered Clouds 2500ft
Broken Clouds 7000ft
1006 - LGIO 151750Z 00000KT 9999 -RA FEW006 SCT025 BKN070 12/11 Q1006
12°C / 10°C variable 1kt - 1006 - LGIO 151720Z AUTO VRB01KT //// // ////// 12/10 Q1006 RERA
12°C / 11°C variable 2kt Light Rain 1.00mm precipitation Vertical Visibility of 0ft. 1006 - LGIO 151650Z AUTO VRB02KT //// -RA ////// 12/11 Q1006 RE//
12°C / 11°C variable 2kt Light Rain 1.00mm precipitation Vertical Visibility of 0ft. 1006 - LGIO 151620Z AUTO VRB02KT //// -RA ////// 12/11 Q1006 RE//
12°C / 10°C variable 1kt Light Rain 1.00mm precipitation Vertical Visibility of 0ft. 1005 - LGIO 151550Z AUTO VRB01KT //// -RA ////// 12/10 Q1005 RE//
13°C / 10°C variable 2kt Light Rain 1.00mm precipitation Vertical Visibility of 0ft. 1005 - LGIO 151520Z AUTO VRB02KT //// -RA ////// 13/10 Q1005 RE//
13°C / 10°C variable 0kt Light Rain 1.00mm precipitation Vertical Visibility of 0ft. 1005 - LGIO 151450Z AUTO 00000KT //// -RA ////// 13/10 Q1005 RE//
13°C / 11°C variable 1kt Light Rain 1.00mm precipitation Vertical Visibility of 0ft. 1005 - LGIO 151420Z AUTO VRB01KT //// -RA ////// 13/11 Q1005 RE//
13°C / 10°C 190º variable 170º to 260º 5kt Light Rain 1.00mm precipitation Vertical Visibility of 0ft. 1005 - LGIO 151350Z AUTO 19005KT 170V260 //// -RA ////// 13/10 Q1005 RE//
14°C / 11°C 220º variable 200º to 260º 5kt Light Rain 1.00mm precipitation Vertical Visibility of 0ft. 1005 - LGIO 151320Z AUTO 22005KT 200V260 //// -RA ////// 14/11 Q1005 RE//
14°C / 11°C variable 3kt Light Rain 1.00mm precipitation Vertical Visibility of 0ft. 1005 - LGIO 151250Z AUTO VRB03KT //// -RA ////// 14/11 Q1005 RE//

11°C / 11°C

[Víc]
Vítr variable 3kt
Viditelnost
Počasí Light Rain 1.00mm precipitation
Oblaky Vertical Visibility of 0ft.
Tlak 1008
Změna -
Nezpracované LGIO 160020Z AUTO VRB03KT //// -RA ////// 11/11 Q1008 RE//

11°C / 11°C

[Víc]
Vítr variable 0kt
Viditelnost
Počasí Light Rain 1.00mm precipitation
Oblaky Vertical Visibility of 0ft.
Tlak 1008
Změna -
Nezpracované LGIO 152350Z AUTO 00000KT //// -RA ////// 11/11 Q1008 RE//

11°C / 11°C

[Víc]
Vítr variable 2kt
Viditelnost
Počasí Light Rain 1.00mm precipitation
Oblaky Vertical Visibility of 0ft.
Tlak 1007
Změna -
Nezpracované LGIO 152320Z AUTO VRB02KT //// -RA ////// 11/11 Q1007 RE//

11°C / 11°C

[Víc]
Vítr variable 3kt
Viditelnost
Počasí -
Oblaky
Tlak 1007
Změna -
Nezpracované LGIO 152250Z AUTO VRB03KT //// // ////// 11/11 Q1007 RERA

11°C / 11°C

[Víc]
Vítr variable 2kt
Viditelnost
Počasí Light Rain 1.00mm precipitation
Oblaky Vertical Visibility of 0ft.
Tlak 1007
Změna -
Nezpracované LGIO 152220Z AUTO VRB02KT //// -RA ////// 11/11 Q1007 RE//

11°C / 11°C

[Víc]
Vítr variable 0kt
Viditelnost
Počasí Light Rain 1.00mm precipitation
Oblaky Vertical Visibility of 0ft.
Tlak 1007
Změna -
Nezpracované LGIO 152150Z AUTO 00000KT //// -RA ////// 11/11 Q1007 RE//

11°C / 11°C

[Víc]
Vítr variable 0kt
Viditelnost
Počasí Light Rain 1.00mm precipitation
Oblaky Vertical Visibility of 0ft.
Tlak 1007
Změna -
Nezpracované LGIO 152120Z AUTO 00000KT //// -RA ////// 11/11 Q1007 RE//

12°C / 11°C

[Víc]
Vítr variable 1kt
Viditelnost
Počasí Light Rain 1.00mm precipitation
Oblaky Vertical Visibility of 0ft.
Tlak 1007
Změna -
Nezpracované LGIO 152050Z AUTO VRB01KT //// -RA ////// 12/11 Q1007 RE//

12°C / 11°C

[Víc]
Vítr variable 0kt
Viditelnost
Počasí Light Rain 1.00mm precipitation
Oblaky Vertical Visibility of 0ft.
Tlak 1007
Změna -
Nezpracované LGIO 152020Z AUTO 00000KT //// -RA ////// 12/11 Q1007 RE//

11°C / 11°C

[Víc]
Vítr variable 0kt
Viditelnost
Počasí Light Rain 1.00mm precipitation
Oblaky Vertical Visibility of 0ft.
Tlak 1006
Změna -
Nezpracované LGIO 151950Z AUTO 00000KT //// -RA ////// 11/11 Q1006 RE//

12°C / 11°C

[Víc]
Vítr variable 1kt
Viditelnost
Počasí Light Rain 1.00mm precipitation
Oblaky Vertical Visibility of 0ft.
Tlak 1006
Změna -
Nezpracované LGIO 151920Z AUTO VRB01KT //// -RA ////// 12/11 Q1006 RE//

12°C / 11°C

[Víc]
Vítr variable 1kt
Viditelnost
Počasí Light Rain 1.00mm precipitation
Oblaky Vertical Visibility of 0ft.
Tlak 1006
Změna -
Nezpracované LGIO 151850Z AUTO VRB01KT //// -RA ////// 12/11 Q1006 RE//

12°C / 11°C

[Víc]
Vítr variable 2kt
Viditelnost
Počasí Light Rain 1.00mm precipitation
Oblaky Vertical Visibility of 0ft.
Tlak 1006
Změna -
Nezpracované LGIO 151820Z AUTO VRB02KT //// -RA ////// 12/11 Q1006 RE//

VFR

12°C / 11°C

[Víc]
Vítr variable 0kt
Viditelnost >10km
Počasí Light Rain 1.00mm precipitation
Oblaky Vertical Visibility of 0ft.
Scattered Clouds 2500ft
Broken Clouds 7000ft
Tlak 1006
Změna -
Nezpracované LGIO 151750Z 00000KT 9999 -RA FEW006 SCT025 BKN070 12/11 Q1006

12°C / 10°C

[Víc]
Vítr variable 1kt
Viditelnost
Počasí -
Oblaky
Tlak 1006
Změna -
Nezpracované LGIO 151720Z AUTO VRB01KT //// // ////// 12/10 Q1006 RERA

12°C / 11°C

[Víc]
Vítr variable 2kt
Viditelnost
Počasí Light Rain 1.00mm precipitation
Oblaky Vertical Visibility of 0ft.
Tlak 1006
Změna -
Nezpracované LGIO 151650Z AUTO VRB02KT //// -RA ////// 12/11 Q1006 RE//

12°C / 11°C

[Víc]
Vítr variable 2kt
Viditelnost
Počasí Light Rain 1.00mm precipitation
Oblaky Vertical Visibility of 0ft.
Tlak 1006
Změna -
Nezpracované LGIO 151620Z AUTO VRB02KT //// -RA ////// 12/11 Q1006 RE//

12°C / 10°C

[Víc]
Vítr variable 1kt
Viditelnost
Počasí Light Rain 1.00mm precipitation
Oblaky Vertical Visibility of 0ft.
Tlak 1005
Změna -
Nezpracované LGIO 151550Z AUTO VRB01KT //// -RA ////// 12/10 Q1005 RE//

13°C / 10°C

[Víc]
Vítr variable 2kt
Viditelnost
Počasí Light Rain 1.00mm precipitation
Oblaky Vertical Visibility of 0ft.
Tlak 1005
Změna -
Nezpracované LGIO 151520Z AUTO VRB02KT //// -RA ////// 13/10 Q1005 RE//

13°C / 10°C

[Víc]
Vítr variable 0kt
Viditelnost
Počasí Light Rain 1.00mm precipitation
Oblaky Vertical Visibility of 0ft.
Tlak 1005
Změna -
Nezpracované LGIO 151450Z AUTO 00000KT //// -RA ////// 13/10 Q1005 RE//

13°C / 11°C

[Víc]
Vítr variable 1kt
Viditelnost
Počasí Light Rain 1.00mm precipitation
Oblaky Vertical Visibility of 0ft.
Tlak 1005
Změna -
Nezpracované LGIO 151420Z AUTO VRB01KT //// -RA ////// 13/11 Q1005 RE//

13°C / 10°C

[Víc]
Vítr 190º variable 170º to 260º 5kt
Viditelnost
Počasí Light Rain 1.00mm precipitation
Oblaky Vertical Visibility of 0ft.
Tlak 1005
Změna -
Nezpracované LGIO 151350Z AUTO 19005KT 170V260 //// -RA ////// 13/10 Q1005 RE//

14°C / 11°C

[Víc]
Vítr 220º variable 200º to 260º 5kt
Viditelnost
Počasí Light Rain 1.00mm precipitation
Oblaky Vertical Visibility of 0ft.
Tlak 1005
Změna -
Nezpracované LGIO 151320Z AUTO 22005KT 200V260 //// -RA ////// 14/11 Q1005 RE//

14°C / 11°C

[Víc]
Vítr variable 3kt
Viditelnost
Počasí Light Rain 1.00mm precipitation
Oblaky Vertical Visibility of 0ft.
Tlak 1005
Změna -
Nezpracované LGIO 151250Z AUTO VRB03KT //// -RA ////// 14/11 Q1005 RE//

TAF pro Ioánnina (LGIO)

From till


From till Wind variable 3kt. Visibility 8000m. Scattered Clouds 400ft. Broken Clouds 2500ft.
With 40% probability, from till Visibility 3000m. Mist . Broken Clouds 400ft.
With 30% probability, from till Visibility 498.895m. Fog . Broken Clouds 200ft.

Nezpracované: TAF LGIO 152300Z 1600/1609 VRB03KT 8000 SCT004 BKN025 PROB40 1600/1608 3000 BR BKN004 PROB30 1604/1607 0500 FG BKN002

Aktuální snímky ze satelitu a srážky pro Ioánnina, Řecko

Značka polohy je umístěna na Ioánnina. [Víc]

Satelitní snímek v reálném čase kombinuje viditelné světlo během dne s infračerveným zářením během noci. V noci není obraz tmavý, protože infračervené záření dokáže detekovat teplotní rozdíly. Nízká oblačnost a mlha se bohužel těžko odlišují od pozemních teplot, a proto mohou být během noci téměř neviditelné. Satelitní snímky z Meteosatu pro Evropu jsou aktualizovány v reálném čase každých 5 minut. Snímky z GOES-16/GOES-17 (Severní a Jižní Amerika) a Himawari (Asie) jsou aktualizovány) každých 10 minut.

Srážky jsou odhadované na základě radaru a satelitů. V noci jsou odhady srážek ze satelitů méně přesné než během dne. Oranžové křížky označují místa, kde byl zaznamenán blesk (za Evropa).

Copyright 2021 EUMETSAT / meteoblue. Údaje o blescích poskytuje nowcast.

Radar a krátkodobá předpověď srážek pro Ioánnina

Mrholení
Slabé
Mírná
Silné
Velmi silné
Kroupy

Značka lokality je umístněna na Ioánnina. Tato animace ukazuje srážky zaznamenané radarem za poslední hodinu a také 1h předpověď. Mrholení nebo slabé sněžení může být pro radar neviditelné. Intenzita srážek je barevně označena od světle modré po oranžovou.